Regional Weather Roundup
Issued by NWS Cleveland, OH

Home | Current Version | Previous Version | Graphics & Text | Print | Product List | Glossary On
Versions: 1 2 3 4 5 6 7 8 9 10 11 12 13 14 15 16 17 18 19 20 21 22 23 24 25 26 27 28 29 30 31 32 33 34 35 36 37 38 39 40 41 42 43 44 45 46 47 48 49 50
000
ASUS41 KCLE 172010
RWRCLE
OHIO REGIONAL WEATHER ROUNDUP
NATIONAL WEATHER SERVICE CLEVELAND, OH
300 PM EST WED DEC 17 2014

NOTE: "FAIR" INDICATES FEW OR NO CLOUDS BELOW 12,000 FEET WITH NO
SIGNIFICANT WEATHER AND/OR OBSTRUCTIONS TO VISIBILITY.

OHZ001>008-015>018-024>027-034-035-043-044-172100-
   NORTHWEST OHIO

CITY           SKY/WX    TMP DP  RH WIND       PRES   REMARKS
DEFIANCE       NOT AVBL
FINDLAY        CLOUDY    30  24  78 W16       30.13R WCI  19
TOLEDO EXPRESS CLOUDY    29  23  78 W16       30.12S WCI  17
TOLEDO EXEC    CLOUDY    31  22  69 W16G22    30.12S WCI  20
LIMA           CLOUDY    32  23  69 W20       30.15S WCI  20
$$

OHZ009>014-019>023-028>033-038-089-172100-
   NORTHEAST OHIO

CITY           SKY/WX    TMP DP  RH WIND       PRES   REMARKS
CLE-HOPKINS    CLOUDY    31  23  72 W20       30.11S WCI  19
CLE-LAKEFRONT  CLOUDY    33  25  72 W21       30.08S WCI  21
CUY CO. ARPT   CLOUDY    34  27  75 W16G25    30.07S WCI  23
LORAIN-ELYRIA  CLOUDY    30  23  75 W21       30.10S WCI  17
ASHTABULA      CLOUDY    32  24  72 W15G22    30.05R WCI  22
AKRON-CANTON   CLOUDY    31  23  72 W16       30.07R WCI  20
WOOSTER        CLOUDY    30  23  75 W16       30.09S WCI  19
MANSFIELD      CLOUDY    29  24  82 W12G20    30.09S WCI  19
YOUNGSTOWN     CLOUDY    31  24  75 W17G26    30.04R WCI  19
$$

OHZ042-051>053-060>062-070>072-077>081-172100-
  SOUTHWEST OHIO

CITY           SKY/WX    TMP DP  RH WIND       PRES   REMARKS
CINC-COVINGTON CLOUDY    32  22  66 W8        30.20S WCI  25
CINC-LUNKEN    CLOUDY    32  24  72 W9        30.23S WCI  24
HAMILTON       CLOUDY    31  24  75 W8        30.22S WCI  23
DAYTON         CLOUDY    28  23  81 W10       30.19R WCI  19
WRIGHT-PAT AFB CLOUDY    29  23  78 W10       30.19R WCI  20
DAYTON GENERAL CLOUDY    30  24  78 W12       30.17F WCI  20
WILMINGTON     CLOUDY    30  23  75 W16       30.17S WCI  19
$$

OHZ036-037-039>041-045>050-054>059-063>069-073>076-082>088-172100-
  CENTRAL AND SOUTHEAST OHIO

CITY           SKY/WX    TMP DP  RH WIND       PRES   REMARKS
COLUMBUS       CLOUDY    30  23  75 W12       30.16S WCI  20
OSU AIRPORT    CLOUDY    30  23  75 W12       30.16R WCI  20
BOLTON FIELD   NOT AVBL
RICKENBACK AFB CLOUDY    31  24  76 W13       30.16F WCI  21
NEWARK         CLOUDY    32  25  75 W9        30.14S WCI  24
MARION         CLOUDY    29  22  75 W10G22    30.14R WCI  20
LANCASTER      CLOUDY    31  25  78 W14       30.17S WCI  21
ZANESVILLE     CLOUDY    32  24  72 W13       30.14S WCI  22
NEW PHILLY     CLOUDY    33  24  69 W15G22    30.12R WCI  23
$$



USA.gov is the U.S. government's official web portal to all federal, state and local government web resources and services.